Weather History for Fort Drum, NY

Change the Weather History Date:

Friday, March 16, 2012

  Actual Average Record
Temperature  
Mean Temperature 46 °F -  
Max Temperature 50 °F 33 °F 55 °F (2003)
Min Temperature 41 °F 17 °F 3 °F (1998)
Degree Days  
Heating Degree Days 20    
Moisture  
Dew Point 46 °F    
Average Humidity 99    
Maximum Humidity 100    
Minimum Humidity 79    
Precipitation  
Precipitation 0.26 in - - ()
Sea Level Pressure  
Sea Level Pressure 30.10 in    
Wind  
Wind Speed 9 mph (ENE)    
Max Wind Speed 18 mph    
Max Gust Speed 24 mph    
Visibility 5 miles    
Events Fog , Rain    
Averages and records for this station are not official NWS values.
T = Trace of Precipitation, MM = Missing Value Source: NWS Daily Summary

Daily Weather History Graph

Daily Weather History Graph

Search for Another Location

Airport:

Trip Planner

Search our weather history database for the weather conditions in past years. The results will help you decide how hot, cold, wet, or windy it might be!

Date:

Astronomy

Mar. 16, 2012 Rise Set
Actual Time 7:12 AM EDT 7:10 PM EDT
Civil Twilight 6:43 AM EDT 7:39 PM EDT
Nautical Twilight 6:10 AM EDT 8:13 PM EDT
Astronomical Twilight 5:35 AM EDT 8:47 PM EDT
Moon 3:40 AM EDT (3/16) 1:17 PM EDT (3/16)
Length of Visible Light 12h 55m
Length of Day
11h 58m
Waning Crescent, 33% of the Moon is Illuminated
Mar 16
Waning Crescent
Mar 22
New
Mar 30
First Quarter
Apr 6
Full
Apr 13
Last Quarter

Hourly Weather History & Observations

Time (EDT) Temp. Windchill Dew Point Humidity Pressure Visibility Wind Dir Wind Speed Gust Speed Precip Events Conditions
12:55 AM 49.5 °F - 43.3 °F 79% 30.05 in 10.0 mi SE 18.4 mph - N/A   Overcast
1:55 AM 49.3 °F - 43.2 °F 79% 30.08 in 10.0 mi South 4.6 mph - 0.00 in Rain Light Rain
2:16 AM 48.2 °F - 44.6 °F 87% 30.07 in 10.0 mi SE 13.8 mph - N/A   Overcast
2:40 AM 48.2 °F - 44.6 °F 87% 30.06 in 10.0 mi ESE 11.5 mph - N/A   Light Drizzle
2:55 AM 48.2 °F - 44.2 °F 86% 30.06 in 10.0 mi SE 12.7 mph - 0.01 in   Light Drizzle
3:55 AM 47.1 °F - 44.4 °F 90% 30.03 in 9.0 mi SSE 12.7 mph - 0.03 in Rain Light Rain
4:55 AM 46.9 °F - 43.7 °F 88% 30.03 in 10.0 mi SE 13.8 mph - 0.03 in Rain Light Rain
5:55 AM 45.5 °F 38.1 °F 44.6 °F 97% 30.04 in 7.0 mi SSE 18.4 mph - 0.11 in Rain Light Rain
6:55 AM 45.0 °F 37.6 °F 45.0 °F 100% 30.02 in 6.0 mi SSE 17.3 mph - 0.04 in Rain Rain
7:32 AM 44.6 °F 38.1 °F 44.6 °F 100% 30.03 in 8.0 mi SE 13.8 mph - N/A Rain Light Rain
7:36 AM 44.6 °F 38.1 °F 44.6 °F 100% 30.03 in 8.0 mi SSE 13.8 mph - N/A Rain Light Rain
7:49 AM 44.6 °F 37.2 °F 44.6 °F 100% 30.02 in 8.0 mi SSE 17.3 mph - N/A Rain Light Rain
7:55 AM 44.4 °F 37.5 °F 44.4 °F 100% 30.03 in 9.0 mi SSE 15.0 mph 24.2 mph 0.02 in Rain Light Rain
7:56 AM 44.6 °F 38.1 °F 44.6 °F 100% 30.03 in 9.0 mi SSE 13.8 mph 24.2 mph N/A Rain Light Rain
8:08 AM 44.6 °F 38.8 °F 44.6 °F 100% 30.04 in 10.0 mi SSE 11.5 mph - N/A   Mostly Cloudy
8:32 AM 44.6 °F 38.4 °F 44.6 °F 100% 30.03 in 9.0 mi SE 12.7 mph - N/A   Mostly Cloudy
8:55 AM 44.8 °F 38.3 °F 44.8 °F 100% 30.03 in 8.0 mi SE 13.8 mph - 0.00 in   Overcast
9:32 AM 46.4 °F 41.5 °F 46.4 °F 100% 30.05 in 10.0 mi SSE 10.4 mph - N/A   Overcast
9:35 AM 46.4 °F 41.5 °F 46.4 °F 100% 30.06 in 9.0 mi SSE 10.4 mph - N/A Rain Light Rain
9:51 AM 44.6 °F 40.2 °F 44.6 °F 100% 30.06 in 8.0 mi SSE 8.1 mph - N/A   Overcast
9:55 AM 45.1 °F 40.3 °F 45.1 °F 100% 30.06 in 9.0 mi SSE 9.2 mph - 0.01 in   Overcast
9:56 AM 44.6 °F 39.7 °F 44.6 °F 100% 30.07 in 9.0 mi SSE 9.2 mph - N/A   Overcast
10:03 AM 44.6 °F 39.2 °F 44.6 °F 100% 30.07 in 9.0 mi SSE 10.4 mph - N/A   Overcast
10:09 AM 44.6 °F 39.7 °F 44.6 °F 100% 30.07 in 9.0 mi SE 9.2 mph - N/A   Overcast
10:16 AM 44.6 °F 39.2 °F 44.6 °F 100% 30.07 in 9.0 mi SE 10.4 mph - N/A   Overcast
10:24 AM 44.6 °F 40.2 °F 44.6 °F 100% 30.07 in 9.0 mi SSE 8.1 mph - N/A   Overcast
10:49 AM 44.6 °F 39.7 °F 44.6 °F 100% 30.06 in 10.0 mi SSE 9.2 mph - N/A   Overcast
10:55 AM 45.1 °F 40.3 °F 45.1 °F 100% 30.06 in 10.0 mi SSE 9.2 mph - N/A   Overcast
11:03 AM 44.6 °F 40.2 °F 44.6 °F 100% 30.07 in 10.0 mi SE 8.1 mph - N/A   Overcast
11:30 AM 44.6 °F 40.7 °F 44.6 °F 100% 30.07 in 10.0 mi SE 6.9 mph - N/A   Overcast
11:40 AM 44.6 °F 40.2 °F 44.6 °F 100% 30.07 in 9.0 mi SE 8.1 mph - N/A   Light Drizzle
11:45 AM 44.6 °F 40.2 °F 44.6 °F 100% 30.07 in 5.0 mi SE 8.1 mph - N/A   Drizzle
11:55 AM 45.5 °F 41.8 °F 45.5 °F 100% 30.07 in 5.0 mi SE 6.9 mph - 0.01 in   Light Drizzle
11:56 AM 46.4 °F 43.5 °F 46.4 °F 100% 30.07 in 5.0 mi SE 5.8 mph - N/A   Light Drizzle
12:04 PM 46.4 °F 45.2 °F 46.4 °F 100% 30.08 in 5.0 mi SE 3.5 mph - N/A   Overcast
12:05 PM 46.4 °F 45.2 °F 46.4 °F 100% 30.08 in 5.0 mi SE 3.5 mph - N/A   Overcast
12:14 PM 46.4 °F - 46.4 °F 100% 30.08 in 5.0 mi Calm Calm - N/A   Light Drizzle
12:24 PM 46.4 °F 44.3 °F 46.4 °F 100% 30.08 in 5.0 mi SE 4.6 mph - N/A   Overcast
12:37 PM 46.4 °F 44.3 °F 46.4 °F 100% 30.08 in 6.0 mi SSE 4.6 mph - N/A   Overcast
12:55 PM 46.8 °F - 46.8 °F 100% 30.07 in 8.0 mi SSE 4.6 mph - 0.00 in   Overcast
1:23 PM 48.2 °F - 48.2 °F 100% 30.07 in 5.0 mi Calm Calm - N/A   Overcast
1:55 PM 48.0 °F - 48.0 °F 100% 30.08 in 3.0 mi Calm Calm - N/A   Overcast
1:56 PM 48.2 °F - 48.2 °F 100% 30.07 in 2.5 mi Calm Calm - N/A   Overcast
1:59 PM 48.2 °F - 48.2 °F 100% 30.08 in 2.0 mi Calm Calm - N/A   Overcast
2:02 PM 48.2 °F - 48.2 °F 100% 30.08 in 1.8 mi Calm Calm - N/A   Overcast
2:06 PM 48.2 °F - 48.2 °F 100% 30.07 in 1.5 mi Calm Calm - N/A   Overcast
2:20 PM 48.2 °F - 48.2 °F 100% 30.07 in 1.8 mi Calm Calm - N/A   Overcast
2:28 PM 48.2 °F - 48.2 °F 100% 30.06 in 2.0 mi SE 3.5 mph - N/A   Overcast
2:38 PM 50.0 °F - 50.0 °F 100% 30.06 in 2.5 mi SSE 3.5 mph - N/A   Overcast
2:51 PM 50.0 °F - 50.0 °F 100% 30.07 in 3.0 mi SSE 3.5 mph - N/A   Overcast
2:55 PM 49.5 °F - 49.5 °F 100% 30.07 in 3.0 mi Calm Calm - N/A   Overcast
3:06 PM 50.0 °F - 50.0 °F 100% 30.08 in 2.5 mi Calm Calm - N/A   Overcast
3:08 PM 50.0 °F - 50.0 °F 100% 30.08 in 1.8 mi North 4.6 mph - N/A   Overcast
3:09 PM 50.0 °F - 50.0 °F 100% 30.08 in 1.5 mi North 4.6 mph - N/A   Overcast
3:10 PM 50.0 °F - 50.0 °F 100% 30.09 in 1.2 mi North 3.5 mph - N/A   Overcast
3:11 PM 50.0 °F - 50.0 °F 100% 30.09 in 1.0 mi NNW 3.5 mph - N/A   Overcast
3:12 PM 50.0 °F - 50.0 °F 100% 30.09 in 0.8 mi NNW 4.6 mph - N/A   Overcast
3:13 PM 50.0 °F - 50.0 °F 100% 30.09 in 0.8 mi NNW 5.8 mph - N/A   Overcast
3:14 PM 50.0 °F - 50.0 °F 100% 30.09 in 0.5 mi NNW 5.8 mph - N/A Fog Fog
3:23 PM 50.0 °F - 50.0 °F 100% 30.09 in 0.8 mi NW 6.9 mph - N/A   Overcast
3:25 PM 50.0 °F - 50.0 °F 100% 30.09 in 1.0 mi NW 8.1 mph - N/A   Overcast
3:27 PM 50.0 °F - 50.0 °F 100% 30.09 in 1.2 mi NW 6.9 mph - N/A   Overcast
3:32 PM 50.0 °F - 50.0 °F 100% 30.09 in 1.5 mi NW 6.9 mph - N/A   Overcast
3:35 PM 50.0 °F - 50.0 °F 100% 30.09 in 1.8 mi Variable 5.8 mph - N/A   Overcast
3:40 PM 50.0 °F - 50.0 °F 100% 30.10 in 1.5 mi North 8.1 mph - N/A   Overcast
3:42 PM 50.0 °F - 50.0 °F 100% 30.10 in 1.2 mi NNW 6.9 mph - N/A   Overcast
3:53 PM 48.2 °F - 48.2 °F 100% 30.11 in 1.5 mi NNW 6.9 mph - N/A   Overcast
3:55 PM 48.7 °F - 48.7 °F 100% 30.11 in 1.5 mi North 8.1 mph - N/A   Overcast
3:56 PM 48.2 °F - 48.2 °F 100% 30.11 in 1.5 mi North 8.1 mph - N/A   Overcast
3:59 PM 48.2 °F - 48.2 °F 100% 30.11 in 1.2 mi North 6.9 mph - N/A   Overcast
4:03 PM 48.2 °F - 48.2 °F 100% 30.11 in 1.0 mi NNW 9.2 mph - N/A   Overcast
4:04 PM 48.2 °F - 48.2 °F 100% 30.11 in 1.0 mi North 6.9 mph - N/A   Overcast
4:06 PM 48.2 °F - 48.2 °F 100% 30.11 in 0.8 mi Variable 6.9 mph - N/A   Overcast
4:10 PM 48.2 °F - 48.2 °F 100% 30.12 in 0.5 mi North 8.1 mph - N/A Fog Fog
4:18 PM 48.2 °F - 48.2 °F 100% 30.12 in 0.8 mi North 6.9 mph - N/A   Overcast
4:22 PM 46.4 °F 42.4 °F 46.4 °F 100% 30.12 in 1.0 mi North 8.1 mph - N/A   Overcast
4:24 PM 46.4 °F 42.9 °F 46.4 °F 100% 30.12 in 1.2 mi North 6.9 mph - N/A   Overcast
4:25 PM 46.4 °F 43.5 °F 46.4 °F 100% 30.12 in 1.5 mi North 5.8 mph - N/A   Overcast
4:27 PM 46.4 °F 43.5 °F 46.4 °F 100% 30.12 in 1.8 mi Variable 5.8 mph - N/A   Overcast
4:29 PM 46.4 °F 44.3 °F 46.4 °F 100% 30.12 in 2.0 mi Variable 4.6 mph - N/A   Overcast
4:32 PM 46.4 °F 42.4 °F 46.4 °F 100% 30.12 in 2.5 mi North 8.1 mph - N/A   Overcast
4:34 PM 46.4 °F 43.5 °F 46.4 °F 100% 30.12 in 2.5 mi NNW 5.8 mph - N/A   Overcast
4:36 PM 46.4 °F 44.3 °F 46.4 °F 100% 30.12 in 3.0 mi North 4.6 mph - N/A   Overcast
4:55 PM 46.9 °F - 46.9 °F 100% 30.12 in 5.0 mi Calm Calm - N/A   Overcast
4:58 PM 46.4 °F 45.2 °F 46.4 °F 100% 30.12 in 6.0 mi North 3.5 mph - N/A   Overcast
5:50 PM 46.4 °F 42.9 °F 46.4 °F 100% 30.13 in 3.0 mi NNE 6.9 mph - N/A   Overcast
5:55 PM 46.6 °F - 46.6 °F 100% 30.13 in 3.0 mi North 4.6 mph - N/A   Overcast
6:24 PM 46.4 °F 44.3 °F 46.4 °F 100% 30.14 in 5.0 mi NNE 4.6 mph - N/A   Overcast
6:49 PM 46.4 °F - 46.4 °F 100% 30.14 in 6.0 mi Calm Calm - N/A   Overcast
6:55 PM 46.0 °F 44.8 °F 46.0 °F 100% 30.15 in 7.0 mi NNW 3.5 mph - N/A   Overcast
7:00 PM 46.4 °F 45.2 °F 46.4 °F 100% 30.15 in 6.0 mi North 3.5 mph - N/A   Overcast
7:17 PM 46.4 °F 45.2 °F 46.4 °F 100% 30.17 in 7.0 mi North 3.5 mph - N/A   Overcast
7:55 PM 45.3 °F 41.1 °F 45.3 °F 100% 30.20 in 10.0 mi North 8.1 mph - N/A   Overcast
7:57 PM 44.6 °F 40.2 °F 44.6 °F 100% 30.20 in 10.0 mi NNW 8.1 mph - N/A   Overcast
8:20 PM 44.6 °F 40.2 °F 44.6 °F 100% 30.22 in 10.0 mi NNW 8.1 mph - N/A   Overcast
8:27 PM 44.6 °F 40.2 °F 44.6 °F 100% 30.23 in 10.0 mi North 8.1 mph - N/A   Overcast
8:39 PM 42.8 °F 38.0 °F 42.8 °F 100% 30.23 in 8.0 mi North 8.1 mph - N/A   Overcast
8:55 PM 42.8 °F 39.3 °F 42.8 °F 100% 30.25 in 5.0 mi North 5.8 mph - N/A   Overcast
9:53 PM 42.8 °F 38.6 °F 42.8 °F 100% 30.24 in 9.0 mi ENE 6.9 mph - N/A   Overcast
9:55 PM 42.3 °F 37.3 °F 42.3 °F 100% 30.25 in 10.0 mi ENE 8.1 mph - N/A   Overcast
10:26 PM 42.8 °F 38.0 °F 42.8 °F 100% 30.25 in 6.0 mi East 8.1 mph - N/A   Overcast
10:55 PM 41.5 °F 36.4 °F 41.5 °F 100% 30.26 in 9.0 mi ENE 8.1 mph - N/A   Overcast
11:21 PM 41.0 °F 36.4 °F 41.0 °F 100% 30.27 in 10.0 mi East 6.9 mph - N/A   Overcast
11:55 PM 41.5 °F 36.4 °F 41.5 °F 100% 30.26 in 10.0 mi East 8.1 mph - N/A   Overcast